Location: *
(51.1248°S, 108.4023°W)
Time: 05:18:22
(UTC+00:00)

Cosmos 2297 Rocket - Pass Details

Date: 15 June 2021
Orbit: 838 x 844 km, 71.0° (Epoch: 31 July)

Event Time Altitude Azimuth Distance (km) Brightness Sun altitude
Exits shadow 13:25:35 13° 207° (SSW) 2,257 4.0 -16.2°
Maximum altitude 13:30:41 75° 122° (ESE) 885 2.4 -15.5°
Drops below altitude 10° 13:36:21 10° 36° (NE) 2,467 5.5 -14.6°
Sets 13:38:48 0° 34° (NNE) 3,395 6.3 -14.3°
